UAE4V OOMS-OMDB

Flight info

Callsign UAE4V
Flight time 0h 36m
Altitude 20000
Route MCT T508 SOLUD P574 IMPED
Aircraft A359/H-SDE2E3GHIJ1J3J4J5LM1ORWXY/LB1D1

Departure

Time 2026-05-06 00:31
Airport Muscat International Airport (OOMS)

Arrival

Time 2026-05-06 01:07
Airport Dubai International Airport (OMDB)
Time Latitude Longitude Altitude Speed Heading
2026-05-06 00:10 23.60138 58.28252 51 ft 0 kts 175°
2026-05-06 00:23 23.60148 58.28251 51 ft 4 kts 175°
2026-05-06 00:23 23.60175 58.28249 51 ft 4 kts 175°
2026-05-06 00:23 23.60202 58.28246 46 ft 4 kts 175°
2026-05-06 00:24 23.60227 58.28244 51 ft 3 kts 175°
2026-05-06 00:24 23.60250 58.28237 47 ft 4 kts 124°
2026-05-06 00:24 23.60254 58.28212 51 ft 4 kts 83°
2026-05-06 00:24 23.60253 58.28199 51 ft 0 kts 85°
2026-05-06 00:27 23.60253 58.28203 51 ft 3 kts 85°
2026-05-06 00:27 23.60257 58.28254 51 ft 11 kts 85°
2026-05-06 00:27 23.60288 58.28348 45 ft 16 kts 37°
2026-05-06 00:27 23.60405 58.28350 48 ft 18 kts 353°
2026-05-06 00:28 23.60524 58.28366 45 ft 17 kts 52°
2026-05-06 00:28 23.60547 58.28498 49 ft 19 kts 83°
2026-05-06 00:28 23.60564 58.28646 47 ft 21 kts 83°
2026-05-06 00:28 23.60572 58.28810 51 ft 22 kts 85°
2026-05-06 00:29 23.60587 58.28986 46 ft 24 kts 86°
2026-05-06 00:29 23.60601 58.29174 50 ft 26 kts 85°
2026-05-06 00:29 23.60618 58.29376 45 ft 26 kts 85°
2026-05-06 00:29 23.60631 58.29541 51 ft 22 kts 85°
2026-05-06 00:30 23.60656 58.29688 49 ft 17 kts 50°
2026-05-06 00:30 23.60768 58.29706 50 ft 18 kts 358°
2026-05-06 00:30 23.60890 58.29680 48 ft 16 kts 317°
2026-05-06 00:30 23.60899 58.29628 50 ft 0 kts 263°
2026-05-06 00:31 23.60890 58.29540 45 ft 43 kts 264°
2026-05-06 00:31 23.60845 58.28944 50 ft 113 kts 265°
2026-05-06 00:31 23.60760 58.27865 58 ft 170 kts 265°
2026-05-06 00:31 23.60630 58.26555 755 ft 168 kts 264°
2026-05-06 00:32 23.60504 58.25334 1673 ft 162 kts 265°
2026-05-06 00:32 23.60394 58.24021 1937 ft 185 kts 266°
2026-05-06 00:32 23.60293 58.22531 2191 ft 209 kts 266°
2026-05-06 00:32 23.60172 58.20864 2464 ft 234 kts 265°
2026-05-06 00:33 23.60029 58.19011 2880 ft 253 kts 265°
2026-05-06 00:33 23.59875 58.17063 3481 ft 263 kts 264°
2026-05-06 00:33 23.59712 58.15051 4197 ft 268 kts 264°
2026-05-06 00:33 23.59547 58.13013 4949 ft 272 kts 264°
2026-05-06 00:34 23.59381 58.10938 5673 ft 276 kts 264°
2026-05-06 00:34 23.59211 58.08835 6356 ft 281 kts 263°
2026-05-06 00:34 23.59045 58.06703 7048 ft 283 kts 265°
2026-05-06 00:34 23.59208 58.04554 7676 ft 290 kts 284°
2026-05-06 00:35 23.60129 58.02590 8345 ft 293 kts 304°
2026-05-06 00:35 23.61422 58.00850 8974 ft 298 kts 311°
2026-05-06 00:35 23.62872 57.99217 9654 ft 300 kts 315°
2026-05-06 00:35 23.64385 57.97628 10283 ft 307 kts 316°
2026-05-06 00:36 23.65968 57.95981 10621 ft 324 kts 316°
2026-05-06 00:36 23.67638 57.94215 10930 ft 342 kts 316°
2026-05-06 00:36 23.69321 57.92298 11317 ft 356 kts 311°
2026-05-06 00:36 23.70934 57.90223 11903 ft 362 kts 310°
2026-05-06 00:37 23.72500 57.88111 12601 ft 364 kts 310°
2026-05-06 00:37 23.74075 57.85932 13335 ft 366 kts 309°
2026-05-06 00:37 23.75649 57.83732 14020 ft 370 kts 309°
2026-05-06 00:37 23.77236 57.81509 14669 ft 373 kts 309°
2026-05-06 00:38 23.78841 57.79264 15330 ft 376 kts 309°
2026-05-06 00:38 23.80458 57.77010 15937 ft 379 kts 309°
2026-05-06 00:38 23.82094 57.74734 16542 ft 382 kts 309°
2026-05-06 00:38 23.83745 57.72440 17153 ft 385 kts 309°
2026-05-06 00:39 23.85407 57.70132 17729 ft 388 kts 309°
2026-05-06 00:39 23.87080 57.67809 18303 ft 391 kts 310°
2026-05-06 00:39 23.88772 57.65459 18875 ft 394 kts 309°
2026-05-06 00:39 23.90473 57.63093 19437 ft 397 kts 309°
2026-05-06 00:40 23.92180 57.60719 19724 ft 397 kts 309°
2026-05-06 00:40 23.93881 57.58349 19781 ft 396 kts 309°
2026-05-06 00:40 23.95541 57.56034 19778 ft 396 kts 309°
2026-05-06 00:40 23.96663 57.54471 19777 ft 396 kts 309°
2026-05-06 00:41 23.98364 57.52099 19776 ft 396 kts 309°
2026-05-06 00:41 24.00061 57.49732 19776 ft 396 kts 309°
2026-05-06 00:41 24.01757 57.47366 19777 ft 396 kts 309°
2026-05-06 00:41 24.03457 57.44992 19776 ft 395 kts 309°
2026-05-06 00:42 24.05173 57.42592 19779 ft 409 kts 309°
2026-05-06 00:42 24.06956 57.40102 19779 ft 423 kts 309°
2026-05-06 00:42 24.08804 57.37521 19777 ft 438 kts 309°
2026-05-06 00:42 24.10708 57.34858 19776 ft 448 kts 309°
2026-05-06 00:43 24.12629 57.32170 19776 ft 449 kts 309°
2026-05-06 00:43 24.14551 57.29473 19775 ft 449 kts 309°
2026-05-06 00:43 24.16472 57.26779 19776 ft 449 kts 309°
2026-05-06 00:43 24.18397 57.24078 19776 ft 449 kts 309°
2026-05-06 00:44 24.20317 57.21385 19776 ft 449 kts 309°
2026-05-06 00:44 24.22245 57.18680 19777 ft 450 kts 309°
2026-05-06 00:44 24.24166 57.15982 19777 ft 449 kts 308°
2026-05-06 00:44 24.26085 57.13285 19776 ft 449 kts 308°
2026-05-06 00:45 24.28011 57.10576 19783 ft 449 kts 308°
2026-05-06 00:45 24.29924 57.07885 19782 ft 449 kts 308°
2026-05-06 00:45 24.31827 57.05206 19777 ft 449 kts 308°
2026-05-06 00:45 24.33772 57.02467 19776 ft 449 kts 308°
2026-05-06 00:46 24.35665 56.99800 19776 ft 449 kts 308°
2026-05-06 00:46 24.37578 56.97100 19776 ft 449 kts 308°
2026-05-06 00:46 24.39495 56.94395 19777 ft 449 kts 308°
2026-05-06 00:46 24.41412 56.91688 19776 ft 449 kts 308°
2026-05-06 00:47 24.43330 56.88979 19776 ft 449 kts 308°
2026-05-06 00:47 24.45248 56.86268 19776 ft 450 kts 308°
2026-05-06 00:47 24.47169 56.83554 19777 ft 450 kts 308°
2026-05-06 00:47 24.49084 56.80847 19776 ft 450 kts 308°
2026-05-06 00:48 24.51000 56.78134 19776 ft 450 kts 308°
2026-05-06 00:48 24.52297 56.76297 19776 ft 450 kts 308°
2026-05-06 00:48 24.54213 56.73583 19775 ft 449 kts 308°
2026-05-06 00:48 24.56102 56.70910 19776 ft 450 kts 308°
2026-05-06 00:49 24.58016 56.68192 19776 ft 449 kts 307°
2026-05-06 00:49 24.59904 56.65457 19776 ft 449 kts 307°
2026-05-06 00:49 24.61786 56.62715 19776 ft 449 kts 307°
2026-05-06 00:49 24.63651 56.60014 19771 ft 433 kts 307°
2026-05-06 00:50 24.65439 56.57433 19548 ft 418 kts 307°
2026-05-06 00:50 24.67178 56.54936 19146 ft 408 kts 307°
2026-05-06 00:50 24.68898 56.52474 18644 ft 402 kts 307°
2026-05-06 00:50 24.70598 56.50053 18096 ft 397 kts 307°
2026-05-06 00:51 24.72272 56.47665 17547 ft 393 kts 307°
2026-05-06 00:51 24.73934 56.45293 17008 ft 388 kts 307°
2026-05-06 00:51 24.75575 56.42952 16475 ft 384 kts 307°
2026-05-06 00:51 24.77188 56.40652 15948 ft 379 kts 307°
2026-05-06 00:52 24.78799 56.38357 15426 ft 375 kts 307°
2026-05-06 00:52 24.80379 56.36101 14910 ft 370 kts 307°
2026-05-06 00:52 24.81909 56.33867 14553 ft 362 kts 306°
2026-05-06 00:52 24.83395 56.31652 14078 ft 358 kts 306°
2026-05-06 00:53 24.84863 56.29450 13597 ft 356 kts 306°
2026-05-06 00:53 24.86321 56.27263 13076 ft 354 kts 306°
2026-05-06 00:53 24.87692 56.25019 12554 ft 352 kts 301°
2026-05-06 00:53 24.88952 56.22716 12060 ft 350 kts 300°
2026-05-06 00:54 24.90170 56.20439 11852 ft 338 kts 299°
2026-05-06 00:54 24.91322 56.18253 11695 ft 323 kts 298°
2026-05-06 00:54 24.92421 56.16153 11577 ft 310 kts 298°
2026-05-06 00:54 24.93470 56.14136 11446 ft 297 kts 298°
2026-05-06 00:55 24.94472 56.12203 11309 ft 285 kts 298°
2026-05-06 00:55 24.95439 56.10337 11166 ft 274 kts 298°
2026-05-06 00:55 24.96394 56.08487 10880 ft 282 kts 297°
2026-05-06 00:55 24.97203 56.06517 10584 ft 282 kts 282°
2026-05-06 00:56 24.97536 56.04405 10277 ft 280 kts 274°
2026-05-06 00:56 24.97735 56.02274 9973 ft 280 kts 272°
2026-05-06 00:56 24.97943 56.00148 9678 ft 279 kts 275°
2026-05-06 00:56 24.98170 55.98034 9382 ft 277 kts 275°
2026-05-06 00:57 24.98387 55.95955 9073 ft 275 kts 275°
2026-05-06 00:57 24.98596 55.93878 8778 ft 273 kts 274°
2026-05-06 00:57 24.98805 55.91768 8463 ft 272 kts 274°
2026-05-06 00:57 24.99003 55.89725 8174 ft 271 kts 274°
2026-05-06 00:58 24.99203 55.87671 7874 ft 268 kts 274°
2026-05-06 00:58 24.99399 55.85643 7570 ft 264 kts 274°
2026-05-06 00:58 24.99595 55.83647 7265 ft 260 kts 274°
2026-05-06 00:58 25.00061 55.81743 6966 ft 258 kts 294°
2026-05-06 00:59 25.00939 55.80034 6670 ft 254 kts 300°
2026-05-06 00:59 25.01873 55.78396 6393 ft 250 kts 301°
2026-05-06 00:59 25.02807 55.76758 6125 ft 261 kts 301°
2026-05-06 00:59 25.03801 55.75004 5867 ft 275 kts 301°
2026-05-06 01:00 25.04857 55.73237 5581 ft 277 kts 303°
2026-05-06 01:00 25.05930 55.71479 5302 ft 276 kts 302°
2026-05-06 01:00 25.06955 55.69713 5122 ft 269 kts 300°
2026-05-06 01:00 25.07856 55.67984 5087 ft 251 kts 297°
2026-05-06 01:01 25.08688 55.66360 5054 ft 235 kts 300°
2026-05-06 01:01 25.09513 55.64880 5038 ft 218 kts 301°
2026-05-06 01:01 25.10293 55.63504 5024 ft 208 kts 300°
2026-05-06 01:01 25.11045 55.62151 4848 ft 206 kts 300°
2026-05-06 01:02 25.11787 55.60810 4567 ft 205 kts 300°
2026-05-06 01:02 25.12535 55.59466 4227 ft 205 kts 300°
2026-05-06 01:02 25.13278 55.58126 3896 ft 205 kts 300°
2026-05-06 01:02 25.14017 55.56791 3599 ft 203 kts 300°
2026-05-06 01:03 25.14747 55.55471 3324 ft 201 kts 301°
2026-05-06 01:03 25.15477 55.54154 3055 ft 201 kts 301°
2026-05-06 01:03 25.16196 55.52857 2788 ft 201 kts 301°
2026-05-06 01:03 25.16932 55.51528 2526 ft 199 kts 302°
2026-05-06 01:04 25.17639 55.50251 2260 ft 190 kts 302°
2026-05-06 01:04 25.18294 55.49062 2017 ft 178 kts 302°
2026-05-06 01:04 25.18917 55.47933 1785 ft 166 kts 302°
2026-05-06 01:04 25.19499 55.46880 1573 ft 155 kts 302°
2026-05-06 01:05 25.20042 55.45899 1373 ft 146 kts 303°
2026-05-06 01:05 25.20652 55.44799 1158 ft 143 kts 303°
2026-05-06 01:05 25.21177 55.43859 967 ft 144 kts 302°
2026-05-06 01:05 25.21705 55.42916 769 ft 145 kts 302°
2026-05-06 01:06 25.22228 55.41967 581 ft 145 kts 301°
2026-05-06 01:06 25.22748 55.41010 387 ft 145 kts 301°
2026-05-06 01:06 25.23257 55.40062 179 ft 142 kts 302°
2026-05-06 01:06 25.23785 55.39138 42 ft 140 kts 303°
2026-05-06 01:07 25.24260 55.38289 33 ft 111 kts 300°
2026-05-06 01:07 25.24517 55.37817 29 ft 54 kts 301°
2026-05-06 01:07 25.24698 55.37470 28 ft 50 kts 295°
2026-05-06 01:07 25.24770 55.37202 30 ft 26 kts 275°
2026-05-06 01:08 25.24784 55.37029 28 ft 22 kts 275°
2026-05-06 01:08 25.24833 55.36879 28 ft 21 kts 297°
2026-05-06 01:08 25.24878 55.36716 28 ft 23 kts 288°
2026-05-06 01:08 25.24940 55.36579 28 ft 20 kts 301°
2026-05-06 01:09 25.25017 55.36441 28 ft 22 kts 302°
2026-05-06 01:09 25.25097 55.36300 28 ft 19 kts 302°
2026-05-06 01:09 25.25173 55.36167 28 ft 21 kts 302°
2026-05-06 01:09 25.25255 55.36020 28 ft 23 kts 302°
2026-05-06 01:10 25.25343 55.35863 27 ft 25 kts 302°
2026-05-06 01:10 25.25419 55.35727 27 ft 20 kts 302°
2026-05-06 01:10 25.25498 55.35587 27 ft 22 kts 302°
2026-05-06 01:10 25.25576 55.35449 27 ft 16 kts 302°
2026-05-06 01:11 25.25633 55.35348 27 ft 15 kts 302°
2026-05-06 01:11 25.25631 55.35295 27 ft 5 kts 217°
2026-05-06 01:11 25.25591 55.35268 27 ft 8 kts 211°
2026-05-06 01:11 25.25542 55.35234 27 ft 8 kts 211°
2026-05-06 01:12 25.25523 55.35221 27 ft 0 kts 211°
2026-05-06 01:12 25.25521 55.35220 27 ft 2 kts 211°
2026-05-06 01:12 25.25501 55.35206 27 ft 3 kts 211°
2026-05-06 01:12 25.25498 55.35204 27 ft 0 kts 211°
2026-05-06 01:13 25.25497 55.35204 27 ft 0 kts 211°